x

8461490 - New London, Ct (nlnc3) Weather Station

5:18 - Fri 23rd Jun 2017 All times are EDT. -4 hours from GMT.

  • Wind
    2mph, 3mph gusts
  • Sea Temp 61°f
  • Ar Temp 69°f
  • Sea Pressure 1010mb
  • 8461490 - New London, Ct
  • 8461490 - New London, Ct

More Historic Weather Station data

Upgrade to MSW Pro to gain access to the past 30 days of data for over 8000 Wavebouys and Weather Stations around the globe.

Join Pro

Comparision Forecast

View Surf forecast
   
Sex 06/23 5:18 2 3 mph 1010mb 61f 69f
5:12 3 3 mph 1010mb 61f 69f
5:06 3 3 mph 1010mb 62f 69f
5:00 3 5 mph 1010.1mb 62f 69f
4:54 3 5 mph 1010.1mb 62f 69f
4:48 3 6 mph 1010mb 63f 69f
4:42 3 5 mph 1010.1mb 66f 69f
4:36 2 2 mph 1010mb 68f 69f
4:30 2 3 mph 1010mb 68f 69f
4:24 2 5 mph 1010.1mb 68f 69f
4:18 5 5 mph 1010.1mb 68f 69f
4:12 3 5 mph 1010.1mb 68f 69f
4:06 3 5 mph 1010.1mb 67f 69f
4:00 3 5 mph 1010mb 67f 69f
3:54 3 5 mph 1010mb 67f 69f
3:48 5 5 mph 1010.1mb 67f 69f
3:42 3 5 mph 1010.2mb 67f 69f
3:36 3 5 mph 1010.2mb 67f 69f
3:30 2 3 mph 1010.3mb 68f 69f
3:24 1 2 mph 1010.2mb 69f 69f
3:18 1 3 mph 1010.2mb 68f 69f
3:12 3 3 mph 1010.2mb 68f 69f
3:06 2 3 mph 1010.2mb 69f 69f
3:00 2 3 mph 1010.3mb 69f 69f
2:48 1 2 mph 1010.5mb - -
2:42 1 2 mph 1010.6mb - -
2:36 1 2 mph 1010.7mb - -
2:30 1 2 mph 1010.8mb 69f 68f
2:24 1 2 mph 1010.9mb 68f 68f
2:18 2 2 mph 1011.1mb 68f 68f
2:12 2 3 mph 1011.1mb 67f 69f
2:06 2 3 mph 1011.2mb 66f 69f
2:00 3 3 mph 1011.2mb 65f 69f
1:54 3 3 mph 1011.3mb 65f 69f
1:48 3 5 mph 1011.3mb 64f -
1:42 3 5 mph 1011.4mb 64f -
1:36 3 5 mph 1011.5mb 64f -
1:30 5 5 mph 1011.5mb 64f 69f
1:24 3 5 mph 1011.7mb 64f 69f
1:18 3 5 mph 1011.7mb 64f 69f
1:12 3 5 mph 1011.8mb 64f 69f
1:06 2 2 mph 1011.9mb 63f 69f
1:00 2 2 mph 1012mb 63f 69f
12:54 2 5 mph 1012.2mb 63f 69f
12:48 5 5 mph 1012.3mb 63f 69f
12:42 3 6 mph 1012.4mb 63f 69f
12:36 3 5 mph 1012.4mb 63f 69f
12:30 2 3 mph 1012.4mb 63f 69f
12:24 2 3 mph 1012.4mb 64f 69f
12:18 3 3 mph 1012.5mb 63f 69f
12:12 2 3 mph 1012.6mb 63f 68f
12:06 3 3 mph 1012.7mb 63f 68f
12:00 3 5 mph 1012.6mb 63f 69f
Qui 06/22 11:54 3 5 mph 1012.7mb 63f 70f
11:48 5 6 mph 1012.7mb 63f 70f
11:42 5 6 mph 1012.7mb 62f 70f
11:36 5 5 mph 1012.8mb 62f 70f
11:30 3 5 mph 1012.9mb 62f 69f
11:24 3 3 mph 1013mb 62f 69f
11:18 3 5 mph 1013mb 62f 69f
11:12 3 5 mph 1013mb 62f 70f
11:06 3 6 mph 1012.9mb 62f 70f
11:00 5 6 mph 1012.9mb 62f 70f
10:54 3 6 mph 1013mb 62f 70f
10:48 5 6 mph 1013mb 62f 69f
10:42 5 6 mph 1013.1mb 61f 69f
10:36 3 6 mph 1013.2mb 61f 70f
10:30 6 7 mph 1013.1mb 61f 70f
10:24 6 7 mph 1013.1mb 62f 71f
10:18 6 8 mph 1013.2mb 61f 71f
10:12 7 8 mph 1013.1mb 61f 70f
10:06 7 8 mph 1013.1mb 61f 70f
10:00 7 8 mph 1013.2mb 61f 70f
9:54 6 7 mph 1013.2mb 61f 71f
9:48 5 7 mph 1013.3mb 61f 71f
9:42 5 6 mph 1013.3mb 62f 72f
9:36 5 6 mph 1013.3mb 62f 72f
9:30 5 6 mph 1013.3mb 62f 72f
9:24 5 6 mph 1013.3mb 62f 71f
9:18 5 6 mph 1013.4mb 61f 71f
9:12 6 6 mph 1013.2mb 61f 71f
9:06 6 6 mph 1013.2mb 61f 71f
9:00 6 6 mph 1013.2mb 62f 71f
8:48 3 5 mph 1013.2mb 62f 72f
8:42 5 6 mph 1013.1mb 62f 71f
8:36 6 7 mph 1013.1mb 62f 71f
8:30 6 7 mph 1013.1mb 61f 72f
8:24 6 7 mph 1013.2mb 62f 72f
8:18 5 6 mph 1013.2mb 62f 72f
8:12 6 7 mph 1013.1mb 62f 73f
8:06 7 8 mph 1013.2mb 62f 73f
8:00 5 7 mph 1013.3mb 62f 73f
7:48 6 7 mph 1013.1mb 62f 73f
7:42 6 7 mph 1013.2mb 62f 73f
7:36 6 8 mph 1013.2mb 62f 73f
7:30 6 8 mph 1013.2mb 62f 74f
7:24 6 9 mph 1013mb 62f 75f
7:18 7 10 mph 1013mb 62f 75f
7:12 7 9 mph 1013.1mb 62f 76f
7:06 8 10 mph 1013.2mb 62f 77f
7:00 7 10 mph 1013.3mb 62f 77f
6:54 7 10 mph 1013.2mb 62f 78f
6:48 7 13 mph 1013.1mb 62f 78f
6:42 9 14 mph 1012.9mb 62f 78f
6:36 9 11 mph 1013.1mb 62f 77f
6:30 7 10 mph 1013mb 62f 78f
6:24 9 13 mph 1013mb 62f 78f
6:18 9 11 mph 1013mb 62f 79f
6:12 9 14 mph 1013mb 62f 78f
6:06 9 14 mph 1013.1mb 62f 78f
6:00 10 14 mph 1013.1mb 62f 78f
5:54 11 15 mph 1013.1mb 62f 78f
5:48 11 14 mph 1013.2mb 62f 78f
5:42 10 17 mph 1013.1mb 62f 77f
5:36 10 17 mph 1013mb 61f 78f
5:30 11 15 mph 1013mb 61f 78f
5:24 9 16 mph 1013mb 61f 79f
5:18 10 17 mph 1013.1mb 61f 78f
5:12 10 18 mph 1013.1mb 61f 80f
5:06 13 15 mph 1013.2mb 61f 80f
5:00 9 15 mph 1013.1mb 61f 81f
4:54 9 18 mph 1013.1mb 61f 81f
4:48 10 15 mph 1013.2mb 61f 80f
4:42 14 18 mph 1013.3mb 62f 79f
4:36 10 15 mph 1013.4mb 64f 80f
4:30 14 20 mph 1013.3mb 63f 80f
4:24 10 16 mph 1013.4mb 63f 80f
4:18 9 20 mph 1013.4mb 63f 82f
4:12 16 21 mph 1013.4mb 62f 80f
4:06 13 18 mph 1013.4mb 63f 81f
4:00 14 18 mph 1013.4mb 63f 81f
3:54 10 17 mph 1013.3mb 64f 81f
3:48 9 17 mph 1013.4mb 63f 82f
3:42 13 21 mph 1013.4mb 64f 81f
3:36 9 21 mph 1013.4mb 63f 81f
3:30 9 18 mph 1013.5mb 65f 81f
3:24 10 16 mph 1013.4mb 64f 80f
3:18 11 17 mph 1013.6mb 65f 80f
3:12 13 20 mph 1013.5mb 63f 79f
3:06 15 20 mph 1013.5mb 63f 80f
3:00 14 18 mph 1013.6mb 64f 80f
2:54 9 16 mph 1013.7mb 63f 81f
2:48 8 17 mph 1013.7mb 63f 82f
2:42 13 17 mph 1013.6mb 63f 81f
2:36 13 18 mph 1013.6mb 63f 80f
2:30 10 17 mph 1013.6mb 63f 80f
2:24 15 20 mph 1013.6mb 62f 80f
2:18 10 17 mph 1013.6mb 62f 80f
2:12 10 16 mph 1013.8mb 62f 80f
2:06 11 21 mph 1014mb 62f 80f
2:00 9 13 mph 1014mb 62f 80f
1:54 8 16 mph 1014mb 63f 79f
1:48 9 14 mph 1014.1mb 62f 78f
1:42 10 18 mph 1014.1mb 62f 78f
1:36 13 17 mph 1014.2mb 62f 78f
1:30 10 16 mph 1014.3mb 63f 78f
1:24 14 17 mph 1014.4mb 63f 79f
1:18 8 16 mph 1014.4mb 63f 79f
1:12 10 16 mph 1014.5mb 62f 78f
1:06 10 15 mph 1014.5mb 63f 78f
1:00 10 15 mph 1014.6mb 62f 79f
12:54 9 16 mph 1014.6mb 62f 79f
12:48 13 16 mph 1014.6mb 62f 78f
12:42 13 16 mph 1014.7mb 62f 78f
12:36 13 16 mph 1014.7mb 62f 78f
12:30 9 14 mph 1014.7mb 62f 78f
12:24 13 16 mph 1014.7mb 62f 79f
12:18 13 16 mph 1014.8mb 61f 79f
12:12 9 15 mph 1014.7mb 62f 78f
12:06 11 15 mph 1014.7mb 62f 78f
12:00 11 15 mph 1014.8mb 62f 77f
11:54 9 15 mph 1014.7mb 62f 78f
11:48 9 15 mph 1014.8mb 62f 79f
11:42 7 10 mph 1014.7mb 62f 80f
11:36 6 9 mph 1014.7mb 62f 79f
11:30 7 10 mph 1014.7mb 62f 80f
11:24 6 14 mph 1014.7mb 61f 79f
11:18 9 15 mph 1014.7mb 61f 79f
11:12 7 11 mph 1014.7mb 61f 79f
11:06 6 10 mph 1014.7mb 61f 78f
11:00 8 10 mph 1014.6mb 61f 79f
10:54 7 13 mph 1014.6mb 62f 78f
10:48 5 9 mph 1014.7mb 62f 79f
10:42 3 7 mph 1014.8mb 62f 79f
10:36 3 9 mph 1014.8mb 62f 78f
10:30 3 8 mph 1014.8mb 61f 78f
10:24 2 3 mph 1015mb 61f 76f
10:18  -  6 mph 1015.2mb 61f 77f
10:12 3 6 mph 1015.2mb 61f 78f
10:06 5 8 mph 1015.3mb 61f 76f
10:00 5 8 mph 1015.4mb 61f 76f
9:54 5 6 mph 1015.6mb 61f 77f
9:48 3 7 mph 1015.8mb 61f 76f
9:42 6 9 mph 1015.8mb 61f 76f
9:36 5 8 mph 1015.9mb 61f 76f
9:30 5 8 mph 1016mb 61f 76f
9:24 5 7 mph 1016mb 61f 75f
9:18 3 10 mph 1016.1mb 61f 76f
9:12 6 9 mph 1016.1mb 61f 75f
9:06 6 10 mph 1016.2mb 61f 75f
9:00 5 8 mph 1016.1mb 61f 74f
8:54 3 6 mph 1016.1mb 61f 75f
8:48 2 8 mph 1016.1mb 61f 74f
8:42 5 8 mph 1016mb 61f 74f
8:36 2 7 mph 1016mb 61f 74f
8:30 2 6 mph 1016mb 61f 74f
8:24 1 3 mph 1016.1mb 61f 73f
8:18 1 6 mph 1016.2mb 61f 74f
8:12 3 6 mph 1016.2mb 61f 73f
8:06 2 5 mph 1016.1mb 61f 72f
8:00 2 3 mph 1016mb 61f 71f
7:54 1 3 mph 1015.9mb 61f 71f
7:48 2 3 mph 1015.9mb 61f 71f
7:42 2 3 mph 1015.9mb 61f 70f
7:36 2 6 mph 1015.8mb 61f 71f
7:30 2 3 mph 1015.7mb 61f 71f
7:24 2 3 mph 1015.8mb 61f 71f
7:18  -  1 mph 1015.8mb 62f 72f
7:12  -  2 mph 1015.7mb 62f 71f
7:06  -  1 mph 1015.6mb 62f 71f
7:00  -  2 mph 1015.5mb 62f 72f
6:54 1 3 mph 1015.5mb 62f 71f
6:48 2 3 mph 1015.4mb 62f 70f
6:42 1 3 mph 1015.4mb 62f 69f
6:36 1 3 mph 1015.4mb 62f 69f
6:30 2 3 mph 1015.3mb 63f 69f
6:24 2 3 mph 1015.4mb 63f 69f
6:18 2 3 mph 1015.3mb 63f 68f
6:12 2 3 mph 1015.2mb 62f 68f
6:06 1 3 mph 1015.1mb 62f 67f
6:00 1 3 mph 1015.1mb 61f 67f
5:54 2 3 mph 1015.1mb 61f 65f
5:48 2 3 mph 1015mb 62f 65f
5:42 2 3 mph 1014.9mb 62f 64f
5:36 3 5 mph 1014.9mb 61f 64f
5:30 3 5 mph 1014.9mb 61f 64f
5:24 2 5 mph 1014.8mb 61f 64f
5:18 2 5 mph 1014.7mb 61f 64f
5:12 3 6 mph 1014.7mb 61f 64f
5:06 3 7 mph 1014.6mb 61f 64f
5:00 5 7 mph 1014.5mb 61f 64f
4:54 5 8 mph 1014.5mb 61f 65f
4:48 5 7 mph 1014.4mb 61f 65f
4:42 5 7 mph 1014.4mb 61f 65f
4:36 3 6 mph 1014.4mb 61f 65f
4:30 5 8 mph 1014.3mb 61f 65f
4:24 5 7 mph 1014.2mb 61f 65f
4:18 5 7 mph 1014.1mb 61f 65f
4:12 5 7 mph 1014.1mb 61f 65f
4:06 2 5 mph 1014mb 61f 65f
4:00 3 6 mph 1014.1mb 62f 65f
3:54 5 7 mph 1014.1mb 63f 65f
3:48 5 7 mph 1014mb 66f 65f
3:42 3 6 mph 1013.9mb 67f 65f
3:36 5 6 mph 1014mb 68f 65f
3:30 3 6 mph 1014mb 69f 65f
3:24 3 6 mph 1014mb 68f 65f
3:18 2 6 mph 1013.9mb 69f 65f
3:12 3 5 mph 1014mb 69f 65f
3:06 5 6 mph 1014mb 69f 65f
3:00 3 6 mph 1013.9mb 69f 65f
2:54 2 5 mph 1013.8mb 68f 65f
2:48 1 3 mph 1013.8mb - -
2:42 1 5 mph 1013.8mb - -
2:36 3 5 mph 1013.8mb - -
2:30 3 5 mph 1013.8mb 68f 66f
2:24 3 6 mph 1013.8mb 68f 66f
2:18 3 5 mph 1013.8mb 68f 66f
2:12 3 6 mph 1013.8mb 68f 66f
2:06 5 6 mph 1013.9mb 67f 66f
2:00 5 6 mph 1013.9mb 67f 66f
1:54 3 6 mph 1013.9mb 67f 66f
1:48 3 6 mph 1013.8mb 67f -
1:42 5 6 mph 1013.8mb 67f -
1:36 3 6 mph 1013.7mb 66f -
1:30 3 5 mph 1013.7mb 68f 67f
1:24 5 6 mph 1013.8mb 66f 67f
1:18 3 5 mph 1013.7mb 67f 67f
1:12 3 6 mph 1013.7mb 68f 67f
1:06 5 6 mph 1013.7mb 67f 67f
1:00 3 5 mph 1013.7mb 67f 67f
12:54 2 5 mph 1013.8mb 65f 67f
12:48 2 3 mph 1013.7mb 64f 68f
12:42 2 2 mph 1013.7mb 64f 67f
12:36 1 2 mph 1013.7mb 63f 68f
12:30 2 2 mph 1013.7mb 63f 68f
12:24 1 2 mph 1013.7mb 63f 68f
12:18 2 3 mph 1013.6mb 63f 68f
12:12 1 2 mph 1013.6mb 63f 68f
12:06 1 3 mph 1013.6mb 63f 69f
12:00 2 5 mph 1013.5mb 62f 69f
Qua 06/21 11:54 2 5 mph 1013.4mb 63f 69f
11:48 3 5 mph 1013.3mb 63f 69f
11:42 2 3 mph 1013.2mb 63f 69f
11:36 3 5 mph 1013.2mb 64f 69f
11:30 2 5 mph 1013.2mb 63f 70f
11:24 1 3 mph 1013.1mb 63f 70f
11:18 2 3 mph 1013.1mb 62f 70f
11:12 1 5 mph 1013mb 62f 71f
11:06 2 3 mph 1013mb 62f 71f
11:00 1 2 mph 1013mb 62f 71f
10:54 1 2 mph 1012.8mb 62f 71f
10:48  -  2 mph 1012.8mb 62f 72f
10:42  -  2 mph 1012.7mb 62f 72f
10:36 2 5 mph 1012.7mb 62f 72f
10:30 2 5 mph 1012.7mb 62f 73f
10:24 2 5 mph 1012.6mb 62f 73f
10:18 2 7 mph 1012.6mb 61f 73f
10:12 5 9 mph 1012.5mb 61f 73f
10:06 3 6 mph 1012.6mb 62f 73f
10:00 2 7 mph 1012.6mb 61f 73f
9:54 2 5 mph 1012.7mb 61f 73f
9:48 3 6 mph 1012.7mb 61f 73f
9:42 3 5 mph 1012.5mb 61f 73f
9:36 3 5 mph 1012.3mb 61f 73f
9:30 3 6 mph 1012.2mb 61f 73f
9:24 5 6 mph 1012.1mb 61f 74f
9:18 3 7 mph 1011.9mb 61f 74f
9:12 5 8 mph 1011.8mb 60f 74f
9:06 6 8 mph 1011.7mb 61f 74f
9:00 5 8 mph 1011.7mb 61f 74f
8:54 5 8 mph 1011.7mb 61f 74f
8:48 6 11 mph 1011.6mb 61f 74f
8:42 7 10 mph 1011.5mb 61f 74f
8:36 6 11 mph 1011.4mb 61f 74f
8:30 5 9 mph 1011.5mb 61f 74f
8:24 3 5 mph 1011.5mb 61f 74f
8:18 2 3 mph 1011.5mb 61f 74f
8:12 3 7 mph 1011.6mb 61f 74f
8:06 3 6 mph 1011.6mb 61f 74f
8:00 3 7 mph 1011.6mb 61f 74f
7:54 5 9 mph 1011.5mb 61f 74f
7:48 5 9 mph 1011.5mb 61f 75f
7:42 6 13 mph 1011.6mb 61f 75f
7:36 8 11 mph 1011.5mb 61f 76f
7:30 7 11 mph 1011.4mb 61f 76f
7:24 6 10 mph 1011.2mb 61f 76f
7:18 2 7 mph 1011mb 61f 77f
7:12 3 9 mph 1010.8mb 62f 77f
7:06 6 10 mph 1010.8mb 61f 78f
7:00 6 10 mph 1010.7mb 62f 78f
6:54 8 11 mph 1010.7mb 61f 78f
6:48 6 9 mph 1010.6mb 62f 78f
6:42 7 10 mph 1010.6mb 62f 79f
6:36 8 13 mph 1010.6mb 62f 79f
6:30 7 15 mph 1010.5mb 62f 80f
6:24 11 17 mph 1010.5mb 62f 80f
6:18 8 15 mph 1010.4mb 62f 80f
6:12 10 16 mph 1010.3mb 62f 80f
6:06 14 17 mph 1010.3mb 62f 80f
6:00 9 14 mph 1010.2mb 62f 81f
5:54 10 14 mph 1010.2mb 62f 81f
5:48 13 16 mph 1010.2mb 62f 81f
5:42 9 16 mph 1010.3mb 62f 82f
5:36 10 15 mph 1010.3mb 61f 82f
5:30 9 13 mph 1010.3mb 61f 82f
5:24 9 17 mph 1010.3mb 61f 83f
5:18 11 17 mph 1010.3mb 61f 82f
5:12 11 21 mph 1010.2mb 61f 83f
5:06 9 20 mph 1010.2mb 62f 84f
5:00 6 18 mph 1010.2mb 62f 84f
4:54 9 21 mph 1010.3mb 61f 83f
4:48 11 17 mph 1010.2mb 62f 83f
4:42 8 20 mph 1010.2mb 63f 84f
4:36 9 16 mph 1010.1mb 63f 83f
4:30 11 22 mph 1010.2mb 63f 83f
4:24 14 22 mph 1010.2mb 63f 83f
4:18 10 18 mph 1010.2mb 62f 84f
4:12 7 17 mph 1010.3mb 62f 84f
4:06 11 20 mph 1010.4mb 63f 84f
4:00 13 20 mph 1010.4mb 63f 83f
3:54 15 22 mph 1010.5mb 64f 83f
3:48 11 17 mph 1010.5mb 64f 84f
3:42 10 17 mph 1010.5mb 64f 84f
3:36 13 18 mph 1010.5mb 63f 83f
3:30 11 18 mph 1010.4mb 62f 83f
3:24 14 18 mph 1010.5mb 62f 82f
3:18 11 20 mph 1010.5mb 62f 83f
3:12 13 20 mph 1010.5mb 62f 83f
3:06 11 21 mph 1010.5mb 61f 83f
3:00 8 22 mph 1010.6mb 61f 82f
2:54 14 18 mph 1010.7mb 63f 82f
2:48 11 17 mph 1010.7mb 63f 82f
2:42 10 17 mph 1010.9mb 62f 82f
2:36 13 16 mph 1011mb 63f 81f
2:30 9 14 mph 1011mb 63f 82f
2:24 10 14 mph 1011mb 63f 80f
2:18 11 16 mph 1011mb 62f 81f
2:12 9 15 mph 1011.1mb 62f 81f
2:06 9 16 mph 1011.1mb 62f 82f
2:00 10 14 mph 1011.2mb 62f 81f
1:54 7 11 mph 1011.4mb 62f 82f
1:48 10 15 mph - 63f -
1:42 11 17 mph - 63f -
1:36 13 16 mph - 62f -
1:30 13 18 mph 1011.6mb 62f 80f
1:24 13 15 mph 1011.6mb 63f 80f
1:18 13 17 mph 1011.6mb 62f 80f
1:12 13 17 mph 1011.7mb 62f 81f
1:06 10 15 mph 1011.7mb 62f 81f
1:00 11 16 mph 1011.8mb 62f 81f
12:54 8 14 mph 1011.8mb 63f 82f
12:48 6 10 mph 1011.8mb 64f 83f
12:42 9 14 mph 1011.9mb 64f 82f
12:36 9 14 mph 1012mb 63f 81f
12:30 8 15 mph 1012mb 63f 81f
12:24 8 14 mph 1012mb 63f 80f
12:18 9 14 mph 1012mb 63f 81f
12:12 8 11 mph 1012mb 63f 81f
12:06 8 13 mph 1012.1mb 63f 81f
12:00 7 10 mph 1012.1mb 62f 81f
11:54 9 15 mph 1012.1mb 62f 81f
11:48 6 14 mph 1011.9mb 62f 82f
11:42 8 10 mph 1012mb 62f 83f
11:36 6 13 mph 1012.1mb 61f 83f
11:30 10 22 mph 1012mb 61f 82f
11:24 13 16 mph 1012.1mb 61f 82f
11:18 8 13 mph 1012.1mb 61f 81f
11:12 6 11 mph 1012.2mb 61f 82f
11:06 3 9 mph 1012.2mb 62f 82f
11:00 5 10 mph 1012.2mb 62f 80f
10:54 8 10 mph 1012.3mb 61f 77f
10:48 8 11 mph 1012.3mb 61f 78f
10:42 6 8 mph 1012.3mb 61f 78f
10:36 6 10 mph 1012.4mb 61f 78f
10:30 8 11 mph 1012.4mb 61f 78f
10:24 7 10 mph 1012.3mb 61f 80f
10:18 6 9 mph 1012.3mb 61f 80f
10:12 1 8 mph 1012.3mb 61f 79f
10:06 5 10 mph 1012.3mb 61f 79f
10:00 6 10 mph 1012.5mb 61f 78f
9:54 8 11 mph 1012.5mb 61f 78f
9:48 7 10 mph 1012.4mb 61f 77f
9:42 7 10 mph 1012.4mb 61f 77f
9:36 6 11 mph 1012.4mb 61f 77f
9:30 6 8 mph 1012.5mb 61f 77f
9:24 7 9 mph 1012.5mb 61f 77f
9:18 6 8 mph 1012.6mb 61f 76f
9:12 7 9 mph 1012.7mb 61f 76f
9:06 7 9 mph 1012.7mb 60f 75f
9:00 6 10 mph 1012.8mb 60f 75f
8:54 7 11 mph 1012.8mb 60f 74f
8:48 7 10 mph 1012.9mb 60f 74f
8:42 6 10 mph 1013mb 60f 74f
8:36 7 9 mph 1013.1mb 60f 73f
8:30 6 9 mph 1013.1mb 60f 73f
8:24 7 10 mph 1013.2mb 60f 73f
8:18 7 11 mph 1013.2mb 60f 73f
8:12 9 10 mph 1013.2mb 60f 72f
8:06 6 10 mph 1013.1mb 60f 72f
8:00 7 10 mph 1013mb 60f 72f
7:54 6 9 mph 1012.9mb 60f 72f
7:48 6 9 mph 1012.9mb 60f 72f
7:42 6 8 mph 1012.9mb 60f 72f
7:36 3 7 mph 1013mb 60f 71f
7:30 5 6 mph 1013mb 60f 72f
7:24 6 8 mph 1013mb 60f 71f
7:18 5 6 mph 1013mb 61f 70f
7:12 5 6 mph 1013mb 61f 70f
7:06 5 6 mph 1013.1mb 61f 69f
7:00 6 6 mph 1013.1mb 61f 69f
6:54 3 6 mph 1013.1mb 61f 69f
6:48 3 6 mph 1013.1mb 61f 69f
6:42 5 6 mph 1013.1mb 61f 69f
6:36 5 6 mph 1013mb 61f 68f
6:30 3 5 mph 1013mb 61f 69f
6:24 3 6 mph 1012.9mb 61f 68f
6:18 5 6 mph 1012.9mb 61f 68f
6:12 2 3 mph 1013mb 61f 67f
6:06  -  1 mph 1013mb 61f 67f
6:00  -  1 mph 1013mb 61f 67f
5:54 1 2 mph 1013mb 61f 67f
5:48 2 2 mph 1013mb 61f 67f
5:42 1 2 mph 1013mb 61f 67f
5:36  -  2 mph 1012.9mb 61f 67f
5:30  -  2 mph 1012.9mb 61f 67f
5:24  -  0 mph 1012.8mb 62f 67f
5:18  -  1 mph 1012.9mb 62f 66f
5:12  -  2 mph 1012.8mb 62f 66f
5:06  -  0 mph 1012.7mb 62f 66f
5:00  -  1 mph 1012.6mb 62f 66f
4:54  -  1 mph 1012.5mb 62f 66f
4:48  -  1 mph 1012.6mb 63f 66f
4:42  -  0 mph 1012.5mb 63f 66f
4:36  -  1 mph 1012.6mb 64f 66f
4:30  -  0 mph 1012.6mb 63f 66f
4:24  -  0 mph 1012.6mb 62f 66f
4:18  -  1 mph 1012.6mb 62f 66f
4:12 1 1 mph 1012.6mb 62f 66f
4:06 1 2 mph 1012.5mb 61f 66f
4:00  -  1 mph 1012.5mb 61f 66f
3:54  -  0 mph 1012.6mb 61f 66f
3:48  -  0 mph 1012.6mb 62f 66f
3:42  -  0 mph 1012.6mb 62f 66f
3:36  -  1 mph 1012.7mb 62f 66f
3:30  -  0 mph 1012.8mb 63f 67f
3:24  -  0 mph 1012.7mb 65f 66f
3:18  -  2 mph 1012.8mb 67f 66f
3:12 2 3 mph 1012.9mb 67f 66f
3:06 2 2 mph 1012.9mb 68f 66f
3:00  -  1 mph 1012.9mb 68f 66f
2:54  -  1 mph 1013mb 69f 66f
2:48  -  1 mph 1013.1mb 68f 66f
2:42 2 2 mph 1013mb 68f 66f
2:36  -  1 mph 1013.1mb 68f 66f
2:30  -  1 mph 1013.1mb 68f 66f
2:24  -  1 mph 1013.2mb 69f 66f
2:18  -  0 mph 1013.2mb 69f 66f
2:12  -  1 mph 1013.1mb 69f 66f
2:06  -  3 mph 1013.2mb 69f 66f
2:00 2 3 mph 1013.4mb 69f 67f
1:54  -  2 mph 1013.2mb 69f 67f
1:48  -  2 mph 1013.3mb 70f 67f
1:42 2 3 mph 1013.4mb 70f 67f
1:36 1 2 mph 1013.4mb 69f 67f
1:30 1 2 mph 1013.4mb 69f 67f
1:24 1 1 mph 1013.4mb 69f 67f
1:18 1 2 mph 1013.5mb 69f 67f
1:12  -  1 mph 1013.4mb 69f 67f
1:06  -  2 mph 1013.4mb 69f 68f
1:00  -  1 mph 1013.5mb 69f 68f
12:54  -  0 mph 1013.5mb 69f 67f
12:48  -  1 mph 1013.5mb 68f 68f
12:42 1 2 mph 1013.6mb 68f 68f
12:36  -  1 mph 1013.6mb 68f 68f
12:30 1 3 mph 1013.6mb 67f 68f
12:24 2 3 mph 1013.7mb 67f 68f
12:18 2 3 mph 1013.8mb 68f 68f
12:12 2 5 mph 1013.7mb 67f 68f
12:06 3 6 mph 1013.7mb 66f 68f
12:00 2 2 mph 1013.8mb 66f 68f
Ter 06/20 11:54 2 3 mph 1013.9mb 66f 69f
11:48 3 5 mph 1014mb 65f 69f
11:42 2 3 mph 1014mb 65f 69f
11:36 1 2 mph 1014mb 64f 69f
11:30  -  1 mph 1013.9mb 64f 69f
11:24 1 2 mph 1013.9mb 64f 69f
11:18 2 3 mph 1013.9mb 64f 69f
11:12 1 5 mph 1013.9mb 64f 69f
11:06 2 5 mph 1013.9mb 63f 69f
11:00 2 5 mph 1013.9mb 62f 69f
10:54 3 5 mph 1013.9mb 62f 69f
10:48 2 3 mph 1013.9mb 63f 69f
10:42 2 6 mph 1013.8mb 63f 69f
10:36 3 7 mph 1013.8mb 64f 69f
10:30 5 7 mph 1013.9mb 63f 70f
10:24 3 6 mph 1013.9mb 63f 70f
10:18 3 6 mph 1013.9mb 63f 70f
10:12 3 9 mph 1013.9mb 63f 70f
10:06 3 7 mph 1013.9mb 62f 70f
10:00 3 8 mph 1013.8mb 62f 71f
9:54 3 6 mph 1013.8mb 63f 71f
9:48 3 6 mph 1013.7mb 63f 71f
9:42 6 7 mph 1013.8mb 63f 72f
9:36 5 8 mph 1013.7mb 64f 72f
9:30 5 8 mph 1013.6mb 64f 72f
9:24 6 9 mph 1013.6mb 63f 72f
9:18 7 10 mph 1013.6mb 61f 73f
9:12 7 10 mph 1013.5mb 62f 73f
9:06 7 10 mph 1013.4mb 62f 73f
9:00 6 10 mph 1013.4mb 62f 73f
8:54 6 9 mph 1013.4mb 62f 73f
8:48 6 9 mph 1013.4mb 61f 73f
8:42 7 10 mph 1013.3mb 62f 73f
8:36 7 9 mph 1013.3mb 61f 73f
8:30 6 9 mph 1013.2mb 61f 74f
8:24 3 8 mph 1013.1mb 61f 74f
8:18 6 8 mph 1013.1mb 60f 74f
8:12 7 10 mph 1013.1mb 61f 74f
8:06 6 14 mph 1013mb 60f 75f
8:00 6 8 mph 1012.9mb 60f 75f
7:54 7 9 mph 1012.9mb 61f 76f
7:48 7 14 mph 1012.8mb 61f 76f
7:42 9 14 mph 1012.7mb 61f 77f
7:36 7 14 mph 1012.7mb 61f 77f
7:30 8 11 mph 1012.5mb 61f 78f
7:24 8 15 mph 1012.4mb 61f 78f
7:00 7 18 mph 1012.2mb 61f 79f
6:54 9 15 mph 1012.1mb 61f 79f
6:48 8 16 mph 1012.1mb 61f 80f
6:42 10 15 mph 1012mb 61f 79f
6:36 11 20 mph 1012mb 61f 80f
6:30 9 14 mph 1011.9mb 61f 80f
6:24 10 20 mph 1011.8mb 61f 79f
6:18 14 21 mph 1011.7mb 61f 79f
6:12 11 16 mph 1011.7mb 61f 80f
6:06 10 17 mph 1011.6mb 61f 80f
6:00 14 20 mph 1011.6mb 61f 80f
5:54 14 17 mph 1011.6mb 61f 80f
5:48 11 16 mph 1011.6mb 61f 81f
5:42 13 17 mph 1011.6mb 61f 80f
5:36 11 18 mph 1011.6mb 61f 81f
5:30 10 15 mph 1011.7mb 62f 80f
5:24 9 15 mph 1011.8mb 61f 81f
5:18 11 21 mph 1011.8mb 61f 80f
5:12 10 16 mph 1011.8mb 62f 81f
5:06 9 16 mph 1011.8mb 63f 81f
5:00 10 17 mph 1011.8mb 62f 80f
4:54 13 18 mph 1011.8mb 62f 80f
4:48 13 17 mph 1011.7mb 63f 80f
4:42 13 21 mph 1011.7mb 64f 80f
4:36 14 21 mph 1011.7mb 62f 82f
4:30 13 17 mph 1011.7mb 62f 81f
4:24 14 18 mph 1011.7mb 62f 81f
4:18 10 20 mph 1011.7mb 63f 81f
4:12 13 20 mph 1011.7mb 62f 80f
4:06 10 17 mph 1011.7mb 61f 82f
4:00 11 18 mph 1011.7mb 62f 81f
3:54 11 20 mph 1011.6mb 62f 82f
3:48 15 21 mph 1011.7mb 63f 81f
3:42 14 21 mph 1011.6mb 63f 82f
3:36 13 18 mph 1011.6mb 64f 82f
3:30 9 17 mph 1011.5mb 64f 83f
3:24 10 17 mph 1011.6mb 64f 83f
3:18 10 17 mph 1011.6mb 64f 82f
3:12 13 18 mph 1011.6mb 63f 82f
3:06 11 18 mph 1011.5mb 63f 82f
3:00 14 20 mph 1011.5mb 64f 81f
2:54 10 21 mph 1011.5mb 64f 83f
2:48 11 18 mph 1011.4mb 64f 82f
2:42 13 17 mph 1011.3mb 66f 82f
2:36 9 16 mph 1011.3mb 64f 82f
2:30 11 16 mph 1011.3mb 65f 81f
2:24 11 22 mph 1011.4mb 64f 81f
2:18 14 18 mph 1011.4mb 66f 81f
2:12 10 17 mph 1011.4mb 65f 81f
2:06 9 17 mph 1011.4mb 67f 80f
2:00 14 20 mph 1011.5mb 66f 80f
1:54 16 22 mph 1011.5mb 69f 80f
1:48 14 18 mph 1011.6mb 69f 81f
1:42 11 21 mph 1011.5mb 69f 81f
1:36 16 21 mph 1011.5mb 68f 80f
1:30 14 21 mph 1011.5mb 70f 80f
1:24 14 18 mph 1011.7mb 69f 80f
1:18 11 20 mph 1011.7mb 69f 80f
1:12 16 25 mph 1011.6mb 69f 80f
1:06 9 23 mph 1011.7mb 69f 81f
1:00 14 22 mph 1011.6mb 67f 80f
12:54 13 21 mph 1011.6mb 67f 80f
12:48 16 21 mph 1011.7mb 68f 79f
12:42 10 20 mph 1011.8mb 68f 80f
12:36 14 18 mph 1011.8mb 66f 79f
12:30 14 20 mph 1011.8mb 65f 79f
12:24 14 20 mph 1011.8mb 65f 78f
12:18 11 17 mph 1011.8mb 64f 80f
12:12 11 17 mph 1011.8mb 63f 79f
12:06 8 16 mph 1011.8mb 64f 79f
12:00 10 20 mph 1011.9mb 64f 78f
11:54 13 20 mph 1011.9mb 66f 78f
11:48 15 20 mph 1011.9mb 65f 78f
11:42 15 21 mph 1011.9mb 65f 78f
11:36 15 22 mph 1012mb 65f 77f
11:30 14 24 mph 1012mb 64f 77f
11:24 13 16 mph 1011.9mb 64f 77f
11:18 11 21 mph 1011.9mb 64f 77f
11:12 16 21 mph 1011.8mb 63f 76f
11:06 14 22 mph 1011.8mb 62f 76f
11:00 9 18 mph 1011.8mb 63f 76f
10:54 9 18 mph 1011.7mb 62f 76f
10:48 10 14 mph 1011.6mb 62f 76f
10:42 7 14 mph 1011.5mb 62f 76f
10:36 10 16 mph 1011.5mb 62f 76f
10:30 11 17 mph 1011.5mb 63f 75f
10:24 10 15 mph 1011.5mb 64f 75f
10:18 10 14 mph 1011.5mb 63f 74f
10:12 9 13 mph 1011.5mb 62f 74f
10:06 9 15 mph 1011.5mb 63f 73f
10:00 8 14 mph 1011.6mb 61f 73f
9:54 9 14 mph 1011.6mb 61f 73f
9:48 9 14 mph 1011.6mb 61f 73f
9:42 8 17 mph 1011.5mb 61f 73f
9:36 7 14 mph 1011.5mb 61f 73f
9:30 8 15 mph 1011.5mb 61f 73f
9:24 10 13 mph 1011.4mb 61f 72f
9:18 8 14 mph 1011.6mb 61f 72f
9:12 8 11 mph 1011.6mb 61f 72f
9:06 5 7 mph 1011.6mb 62f 72f
9:00 5 8 mph 1011.6mb 61f 71f
8:54 5 8 mph 1011.6mb 62f 71f
8:48 3 9 mph 1011.6mb 61f 71f
8:42 6 9 mph 1011.5mb 62f 71f
8:36 5 8 mph 1011.4mb 63f 70f
8:30 5 8 mph 1011.5mb 62f 70f
8:24 6 8 mph 1011.4mb 61f 70f
8:18 7 9 mph 1011.5mb 61f 70f
8:12 5 9 mph 1011.6mb 61f 70f
8:06 5 8 mph 1011.6mb 60f 69f
8:00 5 9 mph 1011.5mb 60f 69f
7:54 7 10 mph 1011.4mb 60f 69f
7:48 6 9 mph 1011.4mb 60f 69f
7:42 5 8 mph 1011.4mb 60f 69f
7:36 7 14 mph 1011.3mb 60f 69f
7:30 7 10 mph 1011.1mb 60f 69f
7:24 5 8 mph 1010.9mb 60f 69f
7:18 6 8 mph 1010.9mb 60f 69f
7:12 6 8 mph 1011mb 60f 69f
7:06 5 6 mph 1010.9mb 60f 69f
7:00 5 6 mph 1010.9mb 60f 68f
6:54 3 7 mph 1011mb 60f 68f
6:48 6 9 mph 1011mb 60f 68f
6:42 3 8 mph 1010.8mb 60f 68f
6:36 5 7 mph 1010.7mb 60f 68f
6:30 5 7 mph 1010.8mb 60f 68f
6:24 6 8 mph 1010.9mb 60f 68f
6:18 6 10 mph 1010.7mb 60f 68f
6:12 7 10 mph 1010.8mb 60f 68f
6:06 6 10 mph 1010.8mb 60f 68f
6:00 7 9 mph 1010.8mb 60f 68f
5:54 6 7 mph 1010.6mb 60f 68f
5:48 6 9 mph 1010.4mb 60f 68f
5:42 6 10 mph 1010.5mb 60f 68f
5:36 7 10 mph 1010.5mb 60f 68f
5:30 7 10 mph 1010.5mb 60f 68f
5:24 6 8 mph 1010.4mb 60f 68f
5:18 6 13 mph 1010.1mb 60f 68f
5:12 7 15 mph 1010.6mb 60f 68f
5:06 7 10 mph 1010.3mb 60f 68f
5:00 3 13 mph 1010.2mb 60f 68f
4:54 8 13 mph 1010.5mb 60f 68f
4:48 6 10 mph 1010.3mb 61f 68f
4:42 6 9 mph 1010.2mb 61f 68f
4:36 6 7 mph 1010.3mb 61f 68f
4:30 6 11 mph 1010.4mb 61f 68f
4:24 7 9 mph 1010.3mb 61f 68f
4:18 7 10 mph 1010.3mb 62f 68f
4:12 8 13 mph 1010.3mb 63f 68f
4:06 8 11 mph 1010.4mb 63f 68f
4:00 10 14 mph 1010.5mb 64f 68f
3:54 9 11 mph 1010.4mb 64f 68f
3:48 9 13 mph 1010.6mb 64f 68f
3:42 9 13 mph 1010.6mb 64f 68f
3:36 9 15 mph 1010.8mb 63f 68f
3:30 10 15 mph 1010.9mb 64f 67f
3:24 11 15 mph 1010.9mb 64f 67f
3:18 10 15 mph 1011mb 65f 67f
3:12 11 16 mph 1011mb 65f 67f
3:06 14 18 mph 1011.1mb 64f 67f
3:00 11 17 mph 1011.1mb 64f 67f
2:54 10 18 mph 1011.2mb 64f 67f
2:48 9 15 mph 1011.1mb - -
2:42 10 15 mph 1011.1mb - -
2:36 13 17 mph 1011.1mb - -
2:30 10 14 mph 1011mb 65f 68f
2:24 10 13 mph 1011.1mb 64f 68f
2:18 8 13 mph 1010.9mb 65f 67f
2:12 10 13 mph 1011mb 65f 67f
2:06 8 10 mph 1010.9mb 67f 67f
2:00 6 11 mph 1010.8mb 69f 67f
1:54 9 10 mph 1011.1mb 69f 68f
1:48 5 9 mph 1010.9mb 69f 67f
1:42 7 11 mph 1011.2mb 69f 68f
1:36 8 9 mph 1011.4mb 69f 68f
1:30 6 13 mph 1011.5mb 68f 68f
1:24 8 11 mph 1011.8mb 68f 68f
1:18 8 13 mph 1011.8mb 68f 68f
1:12 9 11 mph 1011.7mb 68f 68f
1:06 7 14 mph 1011.6mb 68f 68f
1:00 7 11 mph 1011.6mb 69f 68f
12:54 8 11 mph 1011.7mb 69f 68f
12:48 10 14 mph 1011.7mb 69f 68f
12:42 9 15 mph 1011.8mb 69f 68f
12:36 9 14 mph 1011.9mb 69f 68f
12:30 10 14 mph 1012mb 69f 68f
12:24 8 11 mph 1012mb 68f 68f
12:18 10 13 mph 1012mb 69f 68f
12:12 8 10 mph 1012mb 69f 68f
12:06 7 10 mph 1012mb 69f 68f
12:00 7 9 mph 1011.7mb 67f 68f
Seg 06/19 11:54 8 10 mph 1011.7mb 68f 68f
11:48 8 13 mph 1011.5mb 66f 68f
11:42 6 10 mph 1011.9mb 67f 68f
11:36 7 14 mph 1011.9mb 67f 68f
11:30 13 17 mph 1012mb 68f 68f
11:24 10 16 mph 1012.3mb 68f 68f
11:18 10 15 mph 1012.4mb 67f 69f
11:12 11 17 mph 1012.4mb 66f 69f
11:06 14 18 mph 1012.4mb 67f 69f
11:00 13 16 mph 1012.2mb 64f 69f
10:54 11 15 mph 1012.2mb 62f 69f
10:48 10 13 mph 1012.2mb 62f 69f
10:42 9 14 mph 1012.2mb 62f 70f
10:36 8 10 mph 1012.1mb 63f 70f
10:30 9 13 mph 1011.9mb 64f 70f
10:24 8 13 mph 1012mb 63f 70f
10:18 8 13 mph 1011.7mb 63f 70f
10:12 7 9 mph 1011.5mb 61f 70f
10:06 3 8 mph 1010.9mb 61f 70f
10:00 5 7 mph 1011.2mb 61f 70f
9:54 5 8 mph 1010.9mb 61f 70f
9:48 5 6 mph 1011.3mb 62f 70f
9:42 6 10 mph 1011.1mb 62f 70f
9:36 8 15 mph 1011.6mb 62f 70f
9:30 8 10 mph 1011.6mb 62f 70f
9:24 7 15 mph 1011.9mb 62f 70f
9:18 11 15 mph 1012mb 62f 70f
9:12 10 14 mph 1011.7mb 62f 70f
9:06 7 10 mph 1011.6mb 62f 70f
9:00 8 9 mph 1011.5mb 62f 70f
8:54 7 8 mph 1011.3mb 62f 70f
8:48 6 9 mph 1011.2mb 63f 71f
8:42 6 8 mph 1011.3mb 62f 71f
8:36 5 7 mph 1011.2mb 61f 71f
8:30 6 8 mph 1011.3mb 61f 71f
8:24 6 11 mph 1011.3mb 61f 71f
8:18 8 15 mph 1011.3mb 62f 71f
8:12 8 11 mph 1011.3mb 62f 72f
8:06 9 14 mph 1011.1mb 61f 72f
8:00 9 13 mph 1011.2mb 62f 72f
7:54 8 14 mph 1011.2mb 60f 73f
7:48 11 15 mph 1011.3mb 62f 73f
7:42 9 14 mph 1011.3mb 61f 73f
7:36 10 17 mph 1011.2mb 60f 73f
7:30 14 17 mph 1011.2mb 60f 73f
7:24 14 20 mph 1011.2mb 61f 73f
7:18 10 18 mph 1011.2mb 60f 73f
7:12 6 9 mph 1011.1mb 60f 72f
7:06 8 13 mph 1011mb 60f 72f
7:00 10 17 mph 1010.7mb 60f 72f
6:54 9 16 mph 1010.7mb 60f 73f
6:48 13 16 mph 1010.8mb 60f 73f
6:42 14 20 mph 1010.7mb 60f 73f
6:36 13 17 mph 1010.8mb 60f 73f
6:30 11 17 mph 1010.9mb 60f 73f
6:24 13 20 mph 1010.7mb 60f 73f
6:18 13 22 mph 1010.6mb 60f 74f
6:12 14 18 mph 1010.5mb 60f 74f
6:06 14 18 mph 1010.5mb 60f 73f
6:00 11 17 mph 1010.4mb 60f 74f
5:54 13 20 mph 1010.5mb 61f 73f
5:48 15 22 mph 1010.4mb 60f 73f
5:42 14 18 mph 1010.5mb 61f 74f
5:36 13 20 mph 1010.5mb 60f 74f
5:30 14 18 mph 1010.5mb 60f 74f
5:24 11 18 mph 1010.6mb 60f 75f
5:18 14 18 mph 1010.5mb 60f 74f
5:12 13 17 mph 1010.5mb 61f 75f
5:06 10 20 mph 1010.6mb 60f 75f
5:00 14 18 mph 1010.5mb 60f 75f
4:54 11 18 mph 1010.4mb 60f 76f
4:48 15 21 mph 1010.5mb 61f 76f
4:42 14 21 mph 1010.5mb 61f 76f
4:36 11 22 mph 1010.5mb 62f 77f
4:30 13 18 mph 1010.4mb 61f 75f
4:24 14 18 mph 1010.4mb 60f 73f
4:18 11 16 mph 1010.4mb 60f 76f
4:12 14 20 mph 1010.5mb 60f 76f
4:06 14 18 mph 1010.4mb 60f 77f
4:00 10 14 mph 1010.3mb 60f 77f
3:54 10 14 mph 1010.4mb 61f 75f
3:48 13 15 mph 1010.2mb 61f 74f
3:42 10 17 mph 1010.4mb 62f 76f
3:36 13 17 mph 1010.3mb 60f 75f
3:30 14 16 mph 1010.4mb 60f 75f
3:24 15 17 mph 1010.4mb 61f 75f
3:18 13 21 mph 1010.4mb 61f 78f
3:12 15 21 mph 1010.4mb 63f 77f
3:06 16 25 mph 1010.5mb 63f 77f
3:00 16 21 mph 1010.5mb 64f 77f
2:54 11 21 mph 1010.7mb 63f 78f
2:48 14 21 mph 1010.7mb 63f 78f
2:42 15 22 mph 1010.8mb 63f 77f
2:36 15 22 mph 1010.9mb 63f 77f
2:30 11 18 mph 1011.1mb 62f 77f
2:24 8 17 mph 1011.2mb 60f 76f
2:18 11 15 mph 1011.3mb 60f 76f
2:12 8 17 mph 1011.2mb 61f 76f
2:06 14 17 mph 1011.3mb 62f 75f
2:00 11 16 mph 1011.4mb 62f 75f
1:54 10 14 mph 1011.5mb 62f 75f
1:48 10 15 mph 1011.3mb 63f 74f
1:42 10 14 mph 1011.3mb 63f 73f
1:36 9 13 mph 1011.4mb 65f 74f
1:30 9 15 mph 1011.5mb 64f 74f
1:24 9 16 mph 1011.5mb 63f 74f
1:18 11 16 mph 1011.5mb 64f 74f
1:12 11 17 mph 1011.5mb 65f 74f
1:06 11 15 mph 1011.5mb 66f 73f
1:00 13 17 mph 1011.4mb 66f 72f
12:54 13 16 mph 1011.3mb 65f 72f
12:48 11 14 mph 1011.2mb 65f 72f
12:42 10 16 mph 1011.4mb 66f 73f
12:36 9 16 mph 1011.6mb 64f 74f
12:30 13 18 mph 1011.6mb 65f 74f
12:24 9 17 mph 1011.8mb 64f 75f
12:18 13 18 mph 1011.7mb 63f 74f
12:12 15 22 mph 1011.8mb 64f 75f
12:06 14 21 mph 1011.7mb 62f 75f
12:00 14 22 mph 1011.7mb 63f 75f
11:54 11 20 mph 1011.8mb 65f 75f
11:48 13 22 mph 1011.9mb 65f 75f
11:42 13 18 mph 1012mb 63f 75f
11:36 14 17 mph 1012.1mb 63f 75f
11:30 11 18 mph 1012.2mb 64f 74f
11:24 15 20 mph 1012.3mb 63f 75f
11:18 14 21 mph 1012.2mb 63f 74f
11:12 16 22 mph 1012.3mb 63f 74f
11:06 14 20 mph 1012.4mb 62f 74f
11:00 13 22 mph 1012.4mb 64f 74f
10:54 15 22 mph 1012.4mb 63f 74f
10:48 13 20 mph 1012.3mb 62f 74f
10:42 13 22 mph 1012.3mb 62f 74f
10:36 14 21 mph 1012.2mb 62f 74f